Find Starlink 2421

NORAD ID: 48098 Int'l Des: 2021-027 Owner: SPXS Country: US Constellation: starlink operational
LEOCIRCULAR

实时位置

正在加载3D地球...

关于 Starlink 2421

正在加载描述...

即将过境

Passes for default location (London). Set your location on the main map for personalized predictions.

高度历史

Loading altitude history...

两行轨道根数

1 48098U 21027G 26123.66307459 .00001531 00000-0 61069-4 0 9991
2 48098 53.1576 259.3403 0000929 94.6925 265.4182 15.31702624281076
Epoch: May 3, 2026 • Age: 14 hours

当前状态

高度 474.3 km
速度 7.63 km/s
星下点 42.42°N, 16.53°W
发射日期 Apr 7, 2021
运行时间 5 years
类型 internet

技术详情

分类 Payload
质量 260.00 kg
干质量 248.00 kg
总质量 260.00 kg
长度 0.20 m
直径 2.80 m
跨度 9.00 m
形状 Box + pan
制造商 SPXS
平台类型 Starlink
阶段状态 In Orbit
所有者/国家 SPXS/US

Most Searched